This is the latest recevied weather packets stored in our database for station/object WX0ABE-13. If no packets are shown the sender has not sent any weather packets the latest 10 day(s).
| Time | Temp. | Humidity | Pressure | Rain* | Wind** | Luminosity | Snow |
|---|---|---|---|---|---|---|---|
| 1787768723 | 28.33° C | 47% | 1024.5 hPa | 0 mm | - | 669 W/m² | - |
| 1787768420 | 27.78° C | 46% | 1024.6 hPa | 0 mm | - | 665 W/m² | - |
| 1787768115 | 27.78° C | 50% | 1024.5 hPa | 0 mm | - | 665 W/m² | - |
| 1787767810 | 27.78° C | 50% | 1024.6 hPa | 0 mm | - | 663 W/m² | - |
| 1787767506 | 27.78° C | 49% | 1024.6 hPa | 0 mm | - | 657 W/m² | - |
| 1787767204 | 27.78° C | 50% | 1024.6 hPa | 0 mm | - | 655 W/m² | - |
| 1787766903 | 27.78° C | 52% | 1024.8 hPa | 0 mm | - | 653 W/m² | - |
| 1787766597 | 27.22° C | 50% | 1024.7 hPa | 0 mm | - | 652 W/m² | - |
| 1787766296 | 27.78° C | 48% | 1024.9 hPa | 0 mm | - | 645 W/m² | - |
| 1787765991 | 27.78° C | 50% | 1024.9 hPa | 0 mm | - | 640 W/m² | - |
| 1787765688 | 27.78° C | 50% | 1024.8 hPa | 0 mm | - | 631 W/m² | - |
| 1787765383 | 27.22° C | 51% | 1025 hPa | 0 mm | - | 630 W/m² | - |
| 1787765082 | 26.67° C | 52% | 1025.1 hPa | 0 mm | - | 623 W/m² | - |
| 1787764777 | 26.67° C | 51% | 1025 hPa | 0 mm | - | 616 W/m² | - |
| 1787764473 | 26.67° C | 53% | 1025.3 hPa | 0 mm | - | 610 W/m² | - |
| 1787764168 | 26.67° C | 52% | 1025 hPa | 0 mm | - | 603 W/m² | - |
| 1787763864 | 26.67° C | 52% | 1025.3 hPa | 0 mm | - | 593 W/m² | - |
| 1787763559 | 26.11° C | 54% | 1025 hPa | 0 mm | - | 437 W/m² | - |
| 1787763255 | 25.56° C | 55% | 1025.3 hPa | 0 mm | - | 203 W/m² | - |
| 1787762949 | 25.56° C | 56% | 1025 hPa | 0 mm | - | 75 W/m² | - |
| 1787762649 | 25.56° C | 54% | 1025 hPa | 0 mm | - | 301 W/m² | - |
| 1787762347 | 25.56° C | 55% | 1025.3 hPa | 0 mm | - | 342 W/m² | - |
| 1787762045 | 25.56° C | 53% | 1025.1 hPa | 0 mm | - | 499 W/m² | - |
| 1787761746 | 25.56° C | 53% | 1025.1 hPa | 0 mm | - | 525 W/m² | - |
| 1787761440 | 24.44° C | 58% | 1025.1 hPa | 0 mm | - | 515 W/m² | - |
* Rain latest hour (hover to see other rain measurements)
** Current wind speed in m/s (hover to see current wind gust speed)